Regional Weather Roundup
Issued by NWS Memphis, TN

Home | Current Version | Previous Version | Text Only | Print | Product List | Glossary On
Versions: 1 2 3 4 5 6 7 8 9 10 11 12 13 14 15 16 17 18 19 20 21 22 23 24 25 26 27 28 29 30 31 32 33 34 35 36 37 38 39 40 41 42 43 44 45 46 47 48 49 50
000
ASUS44 KMEG 261410
RWRMEG
MEMPHIS CWA HOURLY WEATHER ROUNDUP
NATIONAL WEATHER SERVICE MEMPHIS TN
900 AM CDT TUE MAY 26 2015

...WEST TENNESSEE...

CITY           SKY/WX    TMP DP  RH WIND       PRES   REMARKS
MEMPHIS INTL   CLOUDY    67  62  84 SW9       30.05R
NWS MEMPHIS      N/A     67 N/A N/A MISG        N/A
JACKSON        CLOUDY    72  66  81 S7        30.03R
LEXINGTON      CLOUDY    72  66  83 S10       30.04R
DYERSBURG      CLOUDY    72  54  53 SW9G23    30.03R
PARIS          PTSUNNY   70  66  88 S13       30.02R


...EASTERN ARKANSAS...

CITY           SKY/WX    TMP DP  RH WIND       PRES   REMARKS
JONESBORO      PTSUNNY   66  63  90 SW15      30.02R
WEST MEMPHIS   CLOUDY    67  64  90 SW9       30.04R
BATESVILLE     PTSUNNY   66  61  82 SW8       30.02R
NEWPORT        PTSUNNY   69  62  78 SW17      30.02S
WALNUT RIDGE   PTSUNNY   68  61  77 S17       30.00S
BLYTHEVILLE    CLOUDY    68  65  90 SW12      30.03R
NW BLYTHEVILLE CLOUDY    68  63  83 SW14G21   30.03
SEARCY         PTSUNNY   66  61  84 SW8       30.05R
STUTTGART      CLOUDY    66  61  82 SW14      30.05F
PINE BLUFF     PTSUNNY   68  62  81 SW9       30.05R
MONTICELLO     MOSUNNY   68  63  84 SW10      30.05R


...NORTH MISSISSIPPI...

CITY           SKY/WX    TMP DP  RH WIND       PRES   REMARKS
TUPELO         CLOUDY    68  65  90 S9        30.05S
OXFORD         CLOUDY    64  63  94 W9        30.11R
OLIVE BRANCH   PTSUNNY   66  66 100 SW12G17   30.06F
TUNICA         PTSUNNY   66  63  88 SW7       30.07R
CLARKSDALE     PTSUNNY   68  66  94 CALM      30.08R
CORINTH        CLOUDY    72  66  83 SE8       30.04S
GREENWOOD      CLOUDY    67  62  84 S6        30.07F
COLUMBUS       PTSUNNY   70  68  94 S8        30.08R
STARKVILLE     DRIZZLE   64  64 100 SE9       30.07S
GOLDEN TRIANGL PTSUNNY   68  64  88 S9        30.09R


...SOUTHEAST MISSOURI...

CITY           SKY/WX    TMP DP  RH WIND       PRES   REMARKS
WEST PLAINS    CLOUDY    63  58  83 SW10      29.98R
POPLAR BLUFF   CLOUDY    68  61  78 SW16      29.98R
CAPE GIRARDEAU PTSUNNY   72  67  84 SW22G29   29.96R


...NORTHWEST ALABAMA...

CITY           SKY/WX    TMP DP  RH WIND       PRES   REMARKS
MUSCLE SHOALS  CLOUDY    73  68  84 S8        30.12R


...MIDDLE TENNESSEE...

CITY           SKY/WX    TMP DP  RH WIND       PRES   REMARKS
NASHVILLE      CLOUDY    74  68  81 S16G28    30.10S
CLARKSVILLE    CLOUDY    73  67  81 S15G22    30.03F
COLUMBIA       CLOUDY    73  70  88 S12       30.09S


...WESTERN KENTUCKY...

CITY           SKY/WX    TMP DP  RH WIND       PRES   REMARKS
PADUCAH        CLOUDY    73  66  78 S10G16    29.98R
FORT CAMPBELL  CLOUDY    73  68  83 S14G24    30.02F


...CENTRAL ARKANSAS...

CITY           SKY/WX    TMP DP  RH WIND       PRES   REMARKS
LITTLE ROCK    CLOUDY    68  60  75 S12       30.04R


SKY/WX REPORTED AS FAIR MEANS FEW OR NO CLOUDS BELOW
12 THOUSAND FEET.




USA.gov is the U.S. government's official web portal to all federal, state and local government web resources and services.